Location: Mouss�
(47.9236°N, 1.2701°W)
Time: 22:33:33
(UTC+00:00)

FALCON 9 DEB - Pass Details

Date: 03 March 2021
Orbit: 370 x 387 km, 53.0° (Epoch: 20 April)

Event Time Altitude Azimuth Distance (km) Brightness Sun altitude
Rises 19:02:02 0° 285° (WNW) 2,308 8.7 -12.4°
Reaches altitude 10° 19:04:15 10° 296° (WNW) 1,450 7.0 -12.8°
Maximum altitude 19:07:12 31° 1° (N) 723 4.3 -13.2°
Enters shadow 19:08:56 19° 53° (NE) 1,030 4.6 -13.5°
